sat.trackr.live / text

‹ back to catalog

PRAETORIAN SDA_619

NORAD 65582 · 2025-203T

PAYLOAD ACTIVE UNKNOWN

§ Identity

Operator
Country
US
Launch date
2025-09-10
Launch site
AFWTR
Launch vehicle
Mass (kg)
RCS (m²)

Purposes: military

External: N2YO · Heavens-Above · Gunter

§ Orbital elements

Epoch: 2026-09-20T00:34:13.402272Z

Period
104.07 min
Inclination
81.3010°
Eccentricity
0.0007154
Mean motion
13.83731154 rev/d
Perigee alt
945.4 km
Apogee alt
955.9 km
Semi-major
7,328.8 km
B*
1.3463e-4
RAAN
283.0386°
Arg perigee
297.6468°
Mean anomaly
62.3962°
Rev number
5,244

§ Raw data

PRAETORIAN SDA_6191 65582U 25203T   26263.02376623  .00000161  00000+0  13463-3 0  99932 65582  81.3010 283.0386 0007154 297.6468  62.3962 13.83731154 52449

JSON: /api/v1/satellites/65582 · /tle

For live sub-satellite position, see the globe view (requires WebGL).

§ Visibility from observer

Set your observer location to see the next 7 days of passes ≥ 10°. The values pass through the URL so the page stays shareable.

No JS? Fill the form by hand. The geolocation button needs JavaScript.